This demonstration page uses our WeatherBlox Daily Observations layout. Learn more.

36.19886, -115.1175

Hourly Observations for September 26, 2019

Temp ( °F °C ) Dew Point ( °F °C ) Humidity (%) Winds ( mph kmh ) Pressure ( in mb ) Visibility ( mi km ) Precip ( " mm )
12:53 am 00:53 Clear 76 24.4 52 11.1 43 43 E 7 11 29.85 1011 10 16.09344 0 0
1:53 am 01:53 Clear 76 24.4 53 11.7 45 45 E 7 11 29.88 1012 10 16.09344 0 0
2:53 am 02:53 Clear 76 24.4 54 12.2 47 47 E 9 15 29.85 1011 10 16.09344 0 0
3:53 am 03:53 Clear 74 23.3 57 13.9 56 56 ESE 10 17 29.88 1012 10 16.09344 0 0
4:53 am 04:53 Clear 73 22.8 58 14.4 59 59 ENE 8 13 29.88 1012 10 16.09344 0 0
5:53 am 05:53 Clear 73 22.8 58 14.4 59 59 Calm 29.91 1013 10 16.09344 0 0
6:53 am 06:53 Sunny 73 22.8 58 14.4 59 59 N 5 7 29.91 1013 10 16.09344 0 0
7:53 am 07:53 Sunny 73 22.8 59 15 62 62 NE 6 9 29.94 1014 10 16.09344 0 0
8:53 am 08:53 Partly Cloudy 76 24.4 58 14.4 54 54 Calm 29.97 1015 10 16.09344 0 0
9:53 am 09:53 Mostly Sunny 76 24.4 55 12.8 48 48 E 6 9 29.97 1015 10 16.09344 0 0
10:53 am 10:53 Mostly Sunny 79 26.1 53 11.7 41 41 Calm 29.94 1014 10 16.09344 0 0
11:53 am 11:53 Sunny 82 27.8 52 11.1 35 35 E 5 7 29.94 1014 10 16.09344 0 0
12:53 pm 12:53 Mostly Sunny 83 28.3 53 11.7 36 36 E 8 13 29.91 1013 10 16.09344 0 0
1:53 pm 13:53 Sunny 85 29.4 53 11.7 33 33 ESE 8 13 29.88 1012 10 16.09344 0 0
2:53 pm 14:53 Sunny 85 29.4 53 11.7 33 33 undefined N/A 29.85 1011 10 16.09344 0 0
3:53 pm 15:53 Sunny 87 30.6 52 11.1 30 30 S 9 15 29.83 1010 10 16.09344 0 0
4:53 pm 16:53 Sunny 85 29.4 53 11.7 33 33 E 9 15 29.83 1010 10 16.09344 0 0
5:16 pm 17:16 Sunny with Nearby Thunderstorms 85 29.4 52 11.1 32 32 E 10 17 29.68 1005 10 16.09344 0 0
5:31 pm 17:31 Sunny 84 28.9 52 11.1 33 33 ESE 9 15 29.68 1005 10 16.09344 0 0
5:53 pm 17:53 Sunny 85 29.4 50 10 30 30 SSE 9 15 29.83 1010 10 16.09344 0 0
6:16 pm 18:16 Sunny with Thunderstorms 84 28.9 50 10 31 31 SSE 12 19 29.68 1005 10 16.09344 0 0
6:48 pm 18:48 Clear 82 28 52 11 35 35 SE 12 19 29.71 1006 10 16.09344 0 0
6:53 pm 18:53 Clear 83 28.3 51 10.6 33 33 SE 9 15 29.83 1010 10 16.09344 0 0
7:53 pm 19:53 Clear 80 26.7 53 11.7 39 39 ESE 10 17 29.83 1010 10 16.09344 0 0
8:53 pm 20:53 Clear 79 26.1 53 11.7 41 41 ESE 9 15 29.83 1010 10 16.09344 0 0
9:53 pm 21:53 Clear 77 25 54 12.2 45 45 ESE 6 9 29.83 1010 10 16.09344 0 0
10:53 pm 22:53 Clear 75 23.9 55 12.8 50 50 E 9 15 29.83 1010 10 16.09344 0 0
11:53 pm 23:53 Clear 73 22.8 55 12.8 53 53 E 7 11 29.83 1010 10 16.09344 0 0

Powered by AerisWeather